Weather History for Wolf Point, MT

Change the Weather History Date:

Tuesday, July 16, 2013

  Actual Average Record
Temperature  
Mean Temperature 68 °F -  
Max Temperature 79 °F 87 °F 98 °F (2006)
Min Temperature 56 °F 55 °F 46 °F (1999)
Degree Days  
Heating Degree Days 0    
Cooling Degree Days 3    
Growing Degree Days 18 (Base 50)    
Moisture  
Dew Point 52 °F    
Average Humidity 62    
Maximum Humidity 83    
Minimum Humidity 36    
Precipitation  
Precipitation 0.01 in 0.05 in 0.28 in (2002)
Month to date precipitation 0.50 1.09  
Year to date precipitation 9.22 7.50  
Sea Level Pressure  
Sea Level Pressure 30.17 in    
Wind  
Wind Speed 13 mph (NNE)    
Max Wind Speed 24 mph    
Max Gust Speed 33 mph    
Visibility 10 miles    
Events Rain , Thunderstorm    
T = Trace of Precipitation, MM = Missing Value Source: NWS Daily Summary

Daily Weather History Graph

Daily Weather History Graph

Search for Another Location

Airport:

Trip Planner

Search our weather history database for the weather conditions in past years. The results will help you decide how hot, cold, wet, or windy it might be!

Date:

Astronomy

Jul. 16, 2013 Rise Set
Actual Time 5:19 AM MDT 8:56 PM MDT
Civil Twilight 4:40 AM MDT 9:35 PM MDT
Nautical Twilight 3:47 AM MDT 10:28 PM MDT
Astronomical Twilight 2:33 AM MDT 11:40 PM MDT
Moon 2:30 PM MDT (7/16) 12:04 AM MDT (7/16)
Length of Visible Light 16h 55m
Length of Day
15h 37m
First Quarter, 57% of the Moon is Illuminated
Jul 16
First Quarter
Jul 22
Full
Jul 29
Last Quarter
Aug 6
New
Aug 14
First Quarter

Hourly Weather History & Observations

Time (MDT) Temp. Dew Point Humidity Pressure Visibility Wind Dir Wind Speed Gust Speed Precip Events Conditions
12:53 AM 70.0 °F 57.0 °F 63% 29.91 in 10.0 mi North 23.0 mph 32.2 mph N/A   Clear
1:53 AM 68.0 °F 55.0 °F 63% 29.96 in 10.0 mi North 24.2 mph 33.4 mph N/A   Partly Cloudy
2:53 AM 64.9 °F 51.1 °F 61% 30.06 in 10.0 mi West 8.1 mph 31.1 mph N/A   Overcast
3:53 AM 62.1 °F 48.0 °F 60% 30.06 in 10.0 mi North 12.7 mph 23.0 mph N/A   Partly Cloudy
4:53 AM 59.0 °F 46.9 °F 64% 30.05 in 10.0 mi North 17.3 mph 23.0 mph N/A   Clear
5:12 AM 57.2 °F 48.2 °F 72% 30.11 in 10.0 mi North 10.4 mph 23.0 mph N/A Thunderstorm Partly Cloudy
5:53 AM 57.0 °F 48.9 °F 74% 30.12 in 10.0 mi NNE 6.9 mph - 0.00 in Rain , Thunderstorm Light Thunderstorms and Rain
6:44 AM 57.2 °F 51.8 °F 82% 30.18 in 10.0 mi NW 5.8 mph - 0.00 in   Mostly Cloudy
6:53 AM 57.0 °F 51.1 °F 81% 30.15 in 10.0 mi NNW 6.9 mph - 0.00 in   Mostly Cloudy
7:22 AM 57.2 °F 51.8 °F 82% 30.18 in 10.0 mi NNW 6.9 mph - N/A   Scattered Clouds
7:53 AM 60.1 °F 51.1 °F 72% 30.17 in 10.0 mi North 8.1 mph - N/A Thunderstorm Clear
8:27 AM 62.6 °F 51.8 °F 68% 30.20 in 10.0 mi NNW 12.7 mph - N/A   Mostly Cloudy
8:53 AM 63.0 °F 52.0 °F 67% 30.18 in 10.0 mi North 12.7 mph - N/A   Scattered Clouds
9:20 AM 64.4 °F 51.8 °F 64% 30.23 in 10.0 mi NNW 9.2 mph - N/A   Mostly Cloudy
9:44 AM 64.4 °F 51.8 °F 64% 30.22 in 10.0 mi North 11.5 mph - N/A Thunderstorm Mostly Cloudy
9:53 AM 64.0 °F 52.0 °F 65% 30.17 in 10.0 mi NE 13.8 mph - N/A Thunderstorm Scattered Clouds
10:04 AM 62.6 °F 53.6 °F 72% 30.18 in 10.0 mi NNE 10.4 mph 19.6 mph 0.01 in Rain , Thunderstorm Light Thunderstorms and Rain
10:32 AM 66.2 °F 53.6 °F 64% 30.24 in 10.0 mi NW 3.5 mph - 0.01 in   Partly Cloudy
10:53 AM 66.9 °F 53.1 °F 61% 30.23 in 10.0 mi North 10.4 mph - 0.01 in   Mostly Cloudy
11:53 AM 70.0 °F 51.1 °F 51% 30.22 in 10.0 mi NNE 10.4 mph 17.3 mph 0.00 in   Mostly Cloudy
12:53 PM 73.0 °F 52.0 °F 48% 30.20 in 10.0 mi NE 13.8 mph - N/A   Mostly Cloudy
1:53 PM 75.0 °F 51.1 °F 43% 30.20 in 10.0 mi NNE 15.0 mph - N/A   Scattered Clouds
2:53 PM 77.0 °F 52.0 °F 42% 30.19 in 10.0 mi NE 10.4 mph - N/A   Clear
3:53 PM 78.1 °F 51.1 °F 39% 30.19 in 10.0 mi ENE 13.8 mph 19.6 mph N/A   Clear
4:53 PM 78.1 °F 48.9 °F 36% 30.20 in 10.0 mi ENE 10.4 mph - N/A   Clear
5:53 PM 77.0 °F 52.0 °F 42% 30.19 in 10.0 mi East 13.8 mph - N/A   Clear
6:53 PM 75.9 °F 53.1 °F 45% 30.20 in 10.0 mi East 12.7 mph - N/A   Clear
7:53 PM 72.0 °F 54.0 °F 53% 30.21 in 10.0 mi East 9.2 mph - N/A   Clear
8:53 PM 68.0 °F 54.0 °F 61% 30.21 in 10.0 mi East 6.9 mph - N/A   Partly Cloudy
9:53 PM 63.0 °F 55.0 °F 75% 30.22 in 10.0 mi ENE 4.6 mph - N/A   Clear
10:53 PM 61.0 °F 55.0 °F 81% 30.23 in 10.0 mi East 5.8 mph - N/A   Clear
11:53 PM 60.1 °F 55.0 °F 83% 30.23 in 10.0 mi ENE 4.6 mph - N/A   Clear